Detalii statie BARBIERU PROD [00001CE8]

Toti senzorii

Date Temperatura solului [C]Precipitatii [mm]Voltaj baterie [mV]Leaf Wetness [Min]HC Air temperature [C]HC Relative humidity [%]Punctul de roua [C]
medieminmaxsumaultimatimpmedieminmaxmediemediemin
2019-02-21 00:00:00 0 6542
2019-02-21 01:00:00 0 6522
2019-02-21 02:00:00 0 6532
2019-02-21 03:00:00 0 6512
2019-02-21 04:00:00 0 6522
2019-02-21 05:00:00 0 6512
2019-02-21 06:00:00 0 6512
2019-02-21 07:00:00 0 6512
2019-02-21 08:00:00 0 6532
2019-02-21 09:00:00 0 6562
2019-02-21 10:00:00 0 6650
2019-02-21 11:00:00 0 6756
2019-02-21 12:00:00 0 6796
2019-02-21 13:00:00 0 6816
2019-02-21 14:00:00 0 6756
2019-02-21 15:00:00 0 6806
2019-02-21 16:00:00 0 6708
2019-02-21 17:00:00 0 6650
2019-02-21 18:00:00 0 6620
2019-02-21 19:00:00 0 6590
2019-02-21 20:00:00 0 6590
2019-02-21 21:00:00 0 6582
2019-02-21 22:00:00 0 6572
2019-02-21 23:00:00 0 6552
2019-02-22 00:00:00 0 6562
2019-02-22 01:00:00 0 6532
2019-02-22 02:00:00 0 6542
2019-02-22 03:00:00 0 6552
2019-02-22 04:00:00 0 6562
2019-02-22 05:00:00 0 6552
2019-02-22 06:00:00 0 6552
2019-02-22 07:00:00 0 6552
2019-02-22 08:00:00 0 6542
2019-02-22 09:00:00 0 6552
2019-02-22 10:00:00 0.6 6582
2019-02-22 11:00:00 0.8 6610
2019-02-22 12:00:00 0.8 6630
2019-02-22 13:00:00 0.4 6630
2019-02-22 14:00:00 1 6590
2019-02-22 15:00:00 0.8 6562
2019-02-22 16:00:00 0.6 6542
2019-02-22 17:00:00 0 6522
2019-02-22 18:00:00 0.2 6512
2019-02-22 19:00:00 0 6512
2019-02-22 20:00:00 0 6502
2019-02-22 21:00:00 0 6494
2019-02-22 22:00:00 0 6494
2019-02-22 23:00:00 0 6494